Weather History for Kalamazoo, MI

Change the Weather History Date:

Saturday, February 18, 2012

  Actual Average Record
Temperature  
Mean Temperature 32 °F 27 °F  
Max Temperature 42 °F 35 °F 61 °F (1961)
Min Temperature 22 °F 20 °F -4 °F (1979)
Degree Days  
Heating Degree Days 33 38  
Month to date heating degree days 705  
Since 1 July heating degree days 4413  
Cooling Degree Days 0 0  
Month to date cooling degree days 0  
Year to date cooling degree days 0  
Moisture  
Dew Point 22 °F    
Average Humidity 67    
Maximum Humidity 82    
Minimum Humidity 44    
Precipitation  
Precipitation T in 0.05 in 0.28 in (1976)
Month to date precipitation 0.35 0.86  
Year to date precipitation 2.65  
Sea Level Pressure  
Sea Level Pressure 30.11 in    
Wind  
Wind Speed 11 mph (NW)    
Max Wind Speed 23 mph    
Max Gust Speed 30 mph    
Visibility 10 miles    
Events Snow    
T = Trace of Precipitation, MM = Missing Value Source: NWS Daily Summary

Daily Weather History Graph

Daily Weather History Graph

Search for Another Location

Airport:

Trip Planner

Search our weather history database for the weather conditions in past years. The results will help you decide how hot, cold, wet, or windy it might be!

Date:

Astronomy

Feb. 18, 2012 Rise Set
Actual Time 7:34 AM EST 6:17 PM EST
Civil Twilight 7:06 AM EST 6:46 PM EST
Nautical Twilight 6:33 AM EST 7:19 PM EST
Astronomical Twilight 6:01 AM EST 7:51 PM EST
Moon 5:16 AM EST (2/18) 3:11 PM EST (2/18)
Length of Visible Light 11h 40m
Length of Day
10h 42m
Waning Crescent, 11% of the Moon is Illuminated
Feb 18
Waning Crescent
Feb 21
New
Feb 29
First Quarter
Mar 8
Full
Mar 14
Last Quarter

Hourly Weather History & Observations

Time (EST) Temp. Windchill Dew Point Humidity Pressure Visibility Wind Dir Wind Speed Gust Speed Precip Events Conditions
12:53 AM 39.9 °F 33.4 °F 30.9 °F 70% 29.98 in 10.0 mi West 10.4 mph - N/A   Partly Cloudy
1:53 AM 37.9 °F 31.5 °F 30.9 °F 76% 29.99 in 10.0 mi West 9.2 mph - N/A   Mostly Cloudy
2:53 AM 37.0 °F 31.6 °F 30.9 °F 79% 29.99 in 10.0 mi West 6.9 mph - N/A   Overcast
3:53 AM 35.1 °F 27.9 °F 28.9 °F 78% 29.99 in 9.0 mi West 9.2 mph - N/A   Clear
4:53 AM 34.0 °F 28.0 °F 28.9 °F 82% 30.01 in 9.0 mi West 6.9 mph - N/A   Mostly Cloudy
5:53 AM 34.0 °F 27.2 °F 28.0 °F 79% 30.01 in 9.0 mi WNW 8.1 mph - N/A   Mostly Cloudy
6:01 AM 33.8 °F 27.7 °F 28.4 °F 81% 29.99 in 9.0 mi WNW 6.9 mph - N/A   Mostly Cloudy
6:53 AM 33.1 °F 27.7 °F 27.0 °F 78% 30.03 in 10.0 mi West 5.8 mph - N/A   Mostly Cloudy
7:12 AM 33.8 °F 27.7 °F 28.4 °F 81% 30.00 in 10.0 mi WNW 6.9 mph - N/A   Overcast
7:53 AM 34.0 °F 24.2 °F 27.0 °F 75% 30.05 in 5.0 mi NW 15.0 mph - 0.00 in Snow Light Snow
8:35 AM 33.8 °F 24.3 °F 26.6 °F 75% 30.05 in 10.0 mi NNW 13.8 mph 23.0 mph 0.00 in   Overcast
8:53 AM 33.1 °F 22.2 °F 25.0 °F 72% 30.09 in 10.0 mi NW 17.3 mph - 0.00 in   Overcast
9:53 AM 33.8 °F 24.3 °F 21.2 °F 60% 30.09 in 10.0 mi NNW 13.8 mph - N/A   Mostly Cloudy
10:53 AM 33.1 °F 21.5 °F 19.9 °F 59% 30.16 in 10.0 mi NW 19.6 mph - N/A   Mostly Cloudy
11:53 AM 32.0 °F 20.1 °F 15.8 °F 51% 30.14 in 10.0 mi NNW 19.6 mph 29.9 mph N/A   Mostly Cloudy
12:53 PM 35.1 °F 24.1 °F 16.0 °F 46% 30.17 in 10.0 mi NNW 19.6 mph - N/A   Mostly Cloudy
1:53 PM 35.1 °F 24.8 °F 18.0 °F 50% 30.17 in 10.0 mi NW 17.3 mph 27.6 mph N/A   Mostly Cloudy
2:53 PM 36.0 °F 25.3 °F 16.0 °F 44% 30.15 in 10.0 mi North 19.6 mph 23.0 mph N/A   Partly Cloudy
3:53 PM 36.0 °F 25.6 °F 16.0 °F 44% 30.16 in 10.0 mi NNW 18.4 mph 23.0 mph N/A   Partly Cloudy
4:53 PM 35.1 °F 32.2 °F 17.1 °F 48% 30.19 in 10.0 mi Variable 3.5 mph - N/A   Scattered Clouds
5:53 PM 33.1 °F 25.5 °F 18.0 °F 54% 30.20 in 10.0 mi NNW 9.2 mph - N/A   Scattered Clouds
6:53 PM 27.0 °F 18.7 °F 17.1 °F 66% 30.23 in 10.0 mi NNW 8.1 mph - N/A   Clear
7:53 PM 26.1 °F 17.6 °F 18.0 °F 71% 30.24 in 10.0 mi NNW 8.1 mph - N/A   Clear
8:53 PM 24.1 °F 15.2 °F 17.1 °F 75% 30.25 in 10.0 mi North 8.1 mph - N/A   Clear
9:53 PM 24.1 °F 16.0 °F 17.1 °F 75% 30.24 in 10.0 mi North 6.9 mph - N/A   Clear
10:53 PM 24.1 °F 18.2 °F 17.1 °F 75% 30.24 in 10.0 mi North 4.6 mph - N/A   Clear
11:53 PM 23.0 °F 18.4 °F 16.0 °F 74% 30.24 in 10.0 mi NNE 3.5 mph - N/A   Clear